KUIPER-00121

导读 | 豆包AI

KUIPER-00132是美国亚马逊“柯伊伯计划”卫星互联网星座中的一颗卫星,于2025年9月25日发射升空。该项目旨在近地轨道部署超3200颗卫星,提供全球卫星互联网服务,与SpaceX星链项目形成竞争。项目总投资达100亿美元,规划在2029年前完成全面组网,KUIPER-00132的成功发射是项目组网进程中的重要一步,助力亚马逊推进低轨互联网星座建设。

基本信息
目录编号:
65763
目录名称:
KUIPER-00132
国际标识:
2025-217B
轨道中心:
EARTH
卫星名称:
KUIPER-00132
卫星全名:
KUIPER-00121
卫星状态:
在轨 (已飞行159 天)
发射日期:
2025-09-25 UTC
国别 :
美国 (US)
星等 :
--
轨道信息
数据来源 国际轨道数据
星历时间: 2026-03-02T16:21:33+0800
19小时前
查看轨道信息
半长轴: 6825.945km
偏心率: 0.0006334
轨道倾角: 51.861°
近地点辐角 307.366°
升交点赤经 39.130°
平近点角 52.675°
近地点: 443.484km
远地点: 452.132km
周期: 93.541分钟
每日圈数: 15.394253
详细信息
使用方式:
暂无
2D轨道图
3D轨道图
轨道高度分析图
轨道倾角分析图
轨道综合分析图
查看轨道综合分析图